• In Russia
  • List of Countries
  • For 7 days
  • Water Temperature
  • Satellite Maps
  • Weather Map
  • Weather Widgets
  • user-avatar
    Login

    Hourly Weather Mingachevir

    Today, 19 January, Friday

    Time Temperature Precipitation Wind Pressure Humidity
    00:00 +3°C° 0 mm 3 mps 746 mmHg 60%
    01:00 +3°C° 0 mm 3 mps 746 mmHg 60%
    02:00 +3°C° 0 mm 3 mps 746 mmHg 61%
    03:00 +4°C° 0 mm 3 mps 746 mmHg 61%
    04:00 +4°C° 0 mm 3 mps 746 mmHg 60%
    05:00 +4°C° 0 mm 3 mps 746 mmHg 60%
    06:00 +4°C° 0 mm 4 mps 746 mmHg 59%
    07:00 +5°C° 0 mm 4 mps 746 mmHg 56%
    08:00 +6°C° 0 mm 4 mps 747 mmHg 54%
    09:00 +7°C° 0 mm 4 mps 747 mmHg 51%
    10:00 +10°C° 0 mm 4 mps 746 mmHg 47%
    11:00 +11°C° 0 mm 4 mps 746 mmHg 43%
    12:00 +13°C° 0 mm 4 mps 746 mmHg 40%
    13:00 +13°C° 0 mm 4 mps 746 mmHg 39%
    14:00 +13°C° 0 mm 4 mps 746 mmHg 39%
    15:00 +14°C° 0 mm 3 mps 746 mmHg 38%
    16:00 +12°C° 0 mm 3 mps 747 mmHg 43%
    17:00 +11°C° 0 mm 3 mps 747 mmHg 47%
    18:00 +10°C° 0 mm 2 mps 748 mmHg 51%
    19:00 +10°C° 0 mm 3 mps 749 mmHg 51%
    20:00 +9°C° 0 mm 3 mps 749 mmHg 51%
    21:00 +9°C° 0 mm 3 mps 749 mmHg 51%
    22:00 +9°C° 0 mm 3 mps 749 mmHg 52%
    23:00 +9°C° 0 mm 3 mps 750 mmHg 52%

    Tomorrow, 20 January, Saturday

    Time Temperature Precipitation Wind Pressure Humidity
    00:00 +8°C° 0 mm 4 mps 750 mmHg 52%
    01:00 +8°C° 0 mm 4 mps 750 mmHg 52%
    02:00 +8°C° 0 mm 4 mps 751 mmHg 53%
    03:00 +7°C° 0 mm 4 mps 751 mmHg 54%
    04:00 +7°C° 0 mm 4 mps 752 mmHg 55%
    05:00 +7°C° 0 mm 4 mps 752 mmHg 56%
    06:00 +7°C° 0 mm 4 mps 752 mmHg 57%
    07:00 +9°C° 0 mm 3 mps 753 mmHg 57%
    08:00 +9°C° 0 mm 3 mps 754 mmHg 57%
    09:00 +9°C° 0 mm 2 mps 754 mmHg 58%
    10:00 +10°C° 0 mm 2 mps 754 mmHg 55%
    11:00 +12°C° 0 mm 2 mps 754 mmHg 52%
    12:00 +13°C° 0 mm 1 mps 755 mmHg 49%
    13:00 +13°C° 0 mm 2 mps 755 mmHg 48%
    14:00 +13°C° 0 mm 2 mps 755 mmHg 47%
    15:00 +14°C° 0 mm 2 mps 755 mmHg 46%
    16:00 +13°C° 0 mm 2 mps 756 mmHg 53%
    17:00 +10°C° 0 mm 2 mps 756 mmHg 59%
    18:00 +9°C° 0 mm 2 mps 757 mmHg 66%
    19:00 +9°C° 0 mm 2 mps 757 mmHg 68%
    20:00 +8°C° 0 mm 2 mps 757 mmHg 70%
    21:00 +7°C° 0 mm 2 mps 757 mmHg 72%
    22:00 +8°C° 0 mm 1 mps 758 mmHg 72%
    23:00 +8°C° 0 mm 1 mps 758 mmHg 72%

    Day after tomorrow, 21 January, Sunday

    Time Temperature Precipitation Wind Pressure Humidity
    00:00 +7°C° 0 mm 1 mps 758 mmHg 72%
    01:00 +7°C° 0 mm 1 mps 758 mmHg 72%
    02:00 +7°C° 0 mm 1 mps 757 mmHg 71%
    03:00 +7°C° 0 mm 1 mps 757 mmHg 71%
    04:00 +7°C° 0 mm 1 mps 757 mmHg 70%
    05:00 +7°C° 0 mm 1 mps 757 mmHg 68%
    06:00 +6°C° 0 mm 2 mps 757 mmHg 67%
    07:00 +6°C° 0 mm 2 mps 756 mmHg 62%
    08:00 +7°C° 0 mm 2 mps 756 mmHg 58%
    09:00 +8°C° 0 mm 2 mps 756 mmHg 53%
    10:00 +9°C° 0 mm 2 mps 756 mmHg 49%
    11:00 +12°C° 0 mm 2 mps 755 mmHg 44%
    12:00 +12°C° 0 mm 3 mps 754 mmHg 40%
    13:00 +12°C° 0 mm 3 mps 754 mmHg 39%
    14:00 +13°C° 0 mm 3 mps 753 mmHg 38%
    15:00 +13°C° 0 mm 4 mps 753 mmHg 37%
    16:00 +12°C° 0 mm 4 mps 753 mmHg 39%
    17:00 +11°C° 0 mm 4 mps 754 mmHg 42%
    18:00 +10°C° 0 mm 3 mps 754 mmHg 45%
    19:00 +10°C° 0 mm 3 mps 754 mmHg 44%
    20:00 +10°C° 0 mm 3 mps 754 mmHg 43%
    21:00 +10°C° 0 mm 3 mps 754 mmHg 43%
    22:00 +9°C° 0 mm 3 mps 754 mmHg 42%
    23:00 +9°C° 0 mm 2 mps 754 mmHg 42%

    22 January, Monday

    Time Temperature Precipitation Wind Pressure Humidity
    00:00 +9°C° 0 mm 2 mps 753 mmHg 42%
    01:00 +8°C° 0 mm 2 mps 753 mmHg 42%
    02:00 +9°C° 0 mm 1 mps 753 mmHg 42%
    03:00 +9°C° 0 mm 1 mps 753 mmHg 42%
    04:00 +8°C° 0 mm 1 mps 753 mmHg 43%
    05:00 +8°C° 0 mm 1 mps 752 mmHg 44%
    06:00 +8°C° 0 mm 1 mps 752 mmHg 45%
    07:00 +9°C° 0 mm 1 mps 752 mmHg 44%
    08:00 +9°C° 0 mm 1 mps 751 mmHg 43%
    09:00 +9°C° 0 mm 0 mps 751 mmHg 42%
    10:00 +11°C° 0 mm 1 mps 750 mmHg 39%
    11:00 +12°C° 0 mm 1 mps 750 mmHg 37%
    12:00 +13°C° 0 mm 1 mps 749 mmHg 35%
    13:00 +13°C° 0 mm 1 mps 748 mmHg 34%
    14:00 +13°C° 0 mm 1 mps 748 mmHg 34%
    15:00 +14°C° 0 mm 2 mps 747 mmHg 34%
    16:00 +12°C° 0 mm 2 mps 748 mmHg 37%
    17:00 +10°C° 0 mm 2 mps 748 mmHg 40%
    18:00 +9°C° 0 mm 2 mps 748 mmHg 43%
    19:00 +9°C° 0 mm 2 mps 748 mmHg 43%
    20:00 +9°C° 0 mm 2 mps 748 mmHg 42%
    21:00 +9°C° 0 mm 2 mps 748 mmHg 41%
    22:00 +8°C° 0 mm 3 mps 748 mmHg 40%
    23:00 +8°C° 0 mm 3 mps 747 mmHg 39%

    23 January, Tuesday

    Time Temperature Precipitation Wind Pressure Humidity
    00:00 +8°C° 0 mm 3 mps 747 mmHg 37%
    01:00 +8°C° 0 mm 3 mps 747 mmHg 35%
    02:00 +7°C° 0 mm 4 mps 747 mmHg 34%
    03:00 +7°C° 0 mm 4 mps 747 mmHg 32%
    04:00 +7°C° 0 mm 4 mps 748 mmHg 32%
    05:00 +7°C° 0 mm 4 mps 748 mmHg 32%
    06:00 +7°C° 0 mm 4 mps 748 mmHg 31%
    07:00 +8°C° 0 mm 4 mps 748 mmHg 31%
    08:00 +8°C° 0 mm 4 mps 748 mmHg 30%
    09:00 +10°C° 0 mm 4 mps 748 mmHg 30%
    10:00 +12°C° 0 mm 4 mps 748 mmHg 28%
    11:00 +13°C° 0 mm 4 mps 748 mmHg 26%
    12:00 +14°C° 0 mm 4 mps 747 mmHg 23%
    13:00 +14°C° 0 mm 4 mps 747 mmHg 24%
    14:00 +14°C° 0 mm 4 mps 747 mmHg 25%
    15:00 +14°C° 0 mm 3 mps 747 mmHg 26%
    16:00 +13°C° 0 mm 3 mps 748 mmHg 28%
    17:00 +12°C° 0 mm 3 mps 748 mmHg 31%
    18:00 +11°C° 0 mm 3 mps 748 mmHg 33%
    19:00 +12°C° 0 mm 2 mps 748 mmHg 34%
    20:00 +12°C° 0 mm 2 mps 748 mmHg 35%
    21:00 +10°C° 0 mm 2 mps 748 mmHg 36%
    22:00 +10°C° 0 mm 2 mps 748 mmHg 37%
    23:00 +9°C° 0 mm 2 mps 748 mmHg 39%

    24 January, Wednesday

    Time Temperature Precipitation Wind Pressure Humidity
    00:00 +9°C° 0 mm 2 mps 748 mmHg 40%
    01:00 +9°C° 0 mm 2 mps 749 mmHg 41%
    02:00 +8°C° 0 mm 2 mps 749 mmHg 42%
    03:00 +8°C° 0 mm 2 mps 749 mmHg 44%
    04:00 +8°C° 0 mm 2 mps 749 mmHg 45%
    05:00 +8°C° 0 mm 3 mps 749 mmHg 46%
    06:00 +7°C° 0 mm 3 mps 750 mmHg 47%
    07:00 +8°C° 0 mm 3 mps 750 mmHg 46%
    08:00 +9°C° 0 mm 3 mps 751 mmHg 45%
    09:00 +9°C° 0 mm 3 mps 751 mmHg 44%
    10:00 +11°C° 0 mm 3 mps 751 mmHg 42%
    11:00 +12°C° 0 mm 4 mps 751 mmHg 40%
    12:00 +13°C° 0 mm 4 mps 751 mmHg 38%
    13:00 +13°C° 0 mm 3 mps 751 mmHg 38%
    14:00 +13°C° 0 mm 3 mps 751 mmHg 38%
    15:00 +14°C° 0 mm 2 mps 751 mmHg 37%
    16:00 +13°C° 0 mm 2 mps 752 mmHg 42%
    17:00 +12°C° 0 mm 1 mps 753 mmHg 46%
    18:00 +11°C° 0 mm 1 mps 753 mmHg 50%
    19:00 +10°C° 0 mm 1 mps 754 mmHg 54%
    20:00 +10°C° 0 mm 1 mps 754 mmHg 57%
    21:00 +8°C° 0 mm 2 mps 755 mmHg 61%
    22:00 +8°C° 0 mm 2 mps 755 mmHg 66%
    23:00 +7°C° 0 mm 2 mps 755 mmHg 70%
    Show more